Location: Góry Miechowskie
(50.3599°N, 20.1803°E)
Time: 14:55:10
(UTC+00:00)

A-11 Canister half - Pass Details

Date: 21 September 2024
Orbit: 1515 x 1684 km, 47.2° (Epoch: 07 October)

Event Time Altitude Azimuth Distance (km) Brightness Sun altitude
Rises 18:13:59 0° 263° (W) 4,730 12.7 -15.7°
Reaches altitude 10° 18:17:04 10° 261° (W) 3,728 12.0 -16.1°
Maximum altitude 18:26:24 75° 179° (S) 1,571 8.9 -17.5°
Enters shadow 18:32:30 24° 99° (E) 2,714 9.7 -18.4°
Drops below altitude 10° 18:35:36 10° 96° (E) 3,676 - -18.9°
Sets 18:38:37 0° 95° (E) 4,661 - -19.3°
